Location: Cheching
(60.0667°N, 164.2167°W)
Time: 10:55:59
(UTC+00:00)

FENGYUN 1C DEB - Pass Details

Date: 29 September 2021
Orbit: 727 x 819 km, 99.4° (Epoch: 17 October)

Event Time Altitude Azimuth Distance (km) Brightness Sun altitude
Rises 05:26:02 0° 21° (NNE) 3,216 ? -7.0°
Reaches altitude 10° 05:29:06 10° 1° (N) 2,305 ? -7.4°
Maximum altitude 05:32:08 16° 324° (NW) 1,915 ? -7.8°
Drops below altitude 10° 05:35:13 10° 286° (WNW) 2,335 ? -8.1°
Sets 05:38:22 0° 267° (W) 3,280 ? -8.5°
